This demonstration page uses our WeatherBlox Daily Observations layout. Learn more.

Left ArrowRight Arrow

34.74481, -87.66753

Hourly Observations for August 7, 2015

Temp ( °F °C ) Dew Point ( °F °C ) Humidity (%) Winds ( mph kmh ) Pressure ( in mb ) Visibility ( mi km ) Precip ( " mm )
12:53 am 00:53 Clear 71 21.7 69 20.6 94 94 Calm 29.86 1011 10 16 0.00 0.00
1:53 am 01:53 Clear 71 21.7 68 20 90 90 Calm 29.85 1011 10 16 0.00 0.00
2:11 am 02:11 Partly Cloudy 70 21.1 68 20 93 93 Calm 29.85 1011 10 16 0.00 0.00
2:16 am 02:16 Mostly Cloudy 71 21.7 68 20 90 90 Calm 29.85 1011 10 16 0.00 0.00
2:53 am 02:53 Cloudy 71 21.7 69 20.6 94 94 Calm 29.85 1011 10 16 0.00 0.00
3:18 am 03:18 Mostly Clear 71 21.7 68 20 90 90 Calm 29.85 1011 10 16 0.00 0.00
3:53 am 03:53 Clear 70 21.1 67 19.4 90 90 Calm 29.87 1011 10 16 0.00 0.00
4:43 am 04:43 Mostly Clear 69 20.6 67 19.4 93 93 Calm 29.85 1011 10 16 0.00 0.00
4:53 am 04:53 Clear 70 21.1 67 19.4 90 90 Calm 29.87 1012 10 16 0.00 0.00
5:53 am 05:53 Mostly Clear 69 20.6 66 18.9 90 90 Calm 29.87 1012 10 16 0.00 0.00
6:53 am 06:53 Sunny 69 20.6 67 19.4 93 93 Calm 29.89 1012 10 16 0.00 0.00
7:53 am 07:53 Sunny 73 22.8 70 21.1 90 90 NNW 5 7 29.91 1013 10 16 0.00 0.00
8:53 am 08:53 Mostly Sunny 75 23.9 70 21.1 84 84 Calm 29.91 1013 10 16 0.00 0.00
9:53 am 09:53 Sunny 78 25.6 69 20.6 74 74 N 6 9 29.92 1013 10 16 0.00 0.00
10:44 am 10:44 Hazy 79 26.1 69 20.6 72 72 W 7 11 29.94 1014 2 3 0.00 0.00
10:53 am 10:53 Hazy 80 26.7 70 21.1 71 71 NW 6 9 29.93 1014 5 8 0.00 0.00
11:53 am 11:53 Sunny 81 27.2 69 20.6 67 67 VRB 3 6 29.91 1013 10 16 0.00 0.00
12:53 pm 12:53 Sunny 83 28.3 70 21.1 65 65 N 5 7 29.90 1013 10 16 0.00 0.00
1:53 pm 13:53 Sunny 83 28.3 71 21.7 67 67 NW 6 9 29.90 1013 10 16 0.00 0.00
2:53 pm 14:53 Mostly Sunny 85 29.4 72 22.2 65 65 Calm 29.88 1012 10 16 0.00 0.00
3:53 pm 15:53 Mostly Sunny 86 30 71 21.7 61 61 W 6 9 29.87 1011 10 16 0.00 0.00
4:53 pm 16:53 Sunny 85 29.4 71 21.7 63 63 WNW 5 7 29.86 1011 10 16 0.00 0.00
5:53 pm 17:53 Sunny 86 30 71 21.7 61 61 NW 5 7 29.85 1011 10 16 0.00 0.00
6:53 pm 18:53 Sunny 84 28.9 72 22.2 67 67 W 3 6 29.85 1011 10 16 0.00 0.00
7:53 pm 19:53 Clear 79 26.1 72 22.2 79 79 WSW 5 7 29.85 1011 10 16 0.00 0.00
8:53 pm 20:53 Mostly Clear 76 24.4 71 21.7 85 85 Calm 29.86 1011 10 16 0.00 0.00
9:53 pm 21:53 Mostly Cloudy 76 24.4 72 22.2 88 88 Calm 29.89 1012 9 14 0.00 0.00
10:53 pm 22:53 Partly Cloudy 76 24.4 72 22.2 88 88 Calm 29.89 1012 9 14 0.00 0.00
11:53 pm 23:53 Partly Cloudy 75 23.9 72 22.2 90 90 Calm 29.88 1012 7 11 0.00 0.00

Powered by AerisWeather